Location: Julian California
(33.0790°N, 116.6010°W)
Time: 00:15:03
(UTC-07:00)

Resurs 01 Rocket - Pass Details

Date: 12 July 2018
Orbit: 634 x 645 km, 98.1° (Epoch: 24 September)

Event Time Altitude Azimuth Distance (km) Brightness Sun altitude
Exits shadow 20:56:18 - 170° (S) 2,290 4.0 -11.4°
Reaches altitude 10° 20:56:58 10° 170° (S) 2,022 3.8 -11.5°
Maximum altitude 21:01:22 81° 257° (WSW) 653 1.7 -12.3°
Drops below altitude 10° 21:05:50 10° 346° (NNW) 2,040 5.0 -13.0°
Sets 21:08:03 0° 347° (NNW) 2,955 5.9 -13.4°
